Flag for U.S.A. Weather past 2 weeks in Portland, Maine, U.S.A.

Now
37 °F

Partly cloudy.


Feels Like: 29 °F
Forecast: 31 / 36 °F
Wind: 13 mph from North

Location: Portland - Portland International Jetport

Current Time: Dec 18, 2014 at 7:57:19 PM

Latest Report: Dec 18, 2014 at 6:51 PM


Visibility: 10 mi

Pressure: 29.79 "Hg

Humidity: 67%

Dew point: 27 °F

Location of PortlandLocation

Historic Weather in Portland — Graph

°F

Portland temperature yesterday

Maximum temperature yesterday: 42 °F (at 12:51 PM)
Minimum temperature yesterday: 37 °F (at 12:51 AM)
Average temperature yesterday: 39 °F

Past Weeks' High & Low Weather Summary

 TemperatureHumidityPressure
High46 °F (Dec 14, 1:51 PM)97% (Dec 3, 6:03 PM)30.85 "Hg (Dec 3, 6:03 PM)
Low11 °F (Dec 8, 4:51 AM)28% (Dec 7, 11:51 AM)29.45 "Hg (Dec 11, 12:00 AM)
Average33 °F77%30.05 "Hg
* Reported Dec 3 6:03 PM — Dec 18 6:51 PM, Portland, Weather by CustomWeather, © 2014

Note: Actual official high and low records may vary slightly from our data, if they occured in-between our weather recording intervals... More about our weather records

Advertising

Portland weather history for previous 24 hours

 ConditionsComfort  
Time TempWeatherWind HumidityBarometerVisibility
6:51 PM
Dec 18
37 °FPartly cloudy.13 mph67%29.79 "Hg10 mi
5:51 PM40 °FPassing clouds.14 mph60%29.77 "Hg10 mi
4:51 PM40 °FOvercast.8 mph65%29.75 "Hg10 mi
3:51 PM41 °FOvercast.8 mph62%29.73 "Hg10 mi
2:51 PM42 °FMore clouds than sun.20 mph57%29.71 "Hg10 mi
1:51 PM43 °FPartly sunny.13 mph60%29.69 "Hg10 mi
12:51 PM44 °FBroken clouds.15 mph60%29.68 "Hg10 mi
11:51 AM45 °FBroken clouds.10 mph68%29.68 "Hg10 mi
10:51 AM42 °FBroken clouds.10 mph73%29.69 "Hg10 mi
9:51 AM40 °FBroken clouds.9 mph86%29.70 "Hg10 mi
8:51 AM39 °FOvercast.6 mph89%29.69 "Hg10 mi
7:51 AM38 °FLight rain. Cloudy.5 mph93%29.68 "Hg9 mi
6:51 AM38 °FLight rain. Overcast.6 mph93%29.66 "Hg10 mi
5:51 AM38 °FLight rain. Overcast.8 mph93%29.65 "Hg10 mi
4:51 AM39 °FLight rain. Overcast.6 mph89%29.64 "Hg10 mi
3:58 AM39 °FLight rain. Mostly cloudy.No wind89%29.64 "Hg10 mi
3:04 AM38 °FOvercast.3 mph93%29.64 "Hg10 mi
1:51 AM38 °FMostly cloudy.3 mph93%29.65 "Hg10 mi
1:02 AM39 °FMostly cloudy.No wind89%29.65 "Hg10 mi
12:51 AM39 °FMostly cloudy.No wind89%29.64 "Hg10 mi
11:51 PM
Dec 17
39 °FMostly cloudy.6 mph86%29.66 "Hg10 mi
10:51 PM39 °FMostly cloudy.5 mph86%29.67 "Hg10 mi
9:51 PM38 °FMostly cloudy.6 mph90%29.67 "Hg10 mi
8:51 PM39 °FOvercast.8 mph89%29.68 "Hg10 mi
7:51 PM39 °FMostly cloudy.8 mph89%29.68 "Hg10 mi
Weather by CustomWeather, © 2014

See weather overviewHow to use our weather pages